CW3518 Weather Reports


Display with metric or nautical units.
time (UTC)temp
F
wind
direction
speed
MPH
gust
MPH
rain 1hr
in
rain 24hr
in
rain mn
in
humidity
%
barometer
mb
20211024225007 83 182 14.0 21.0 0.00 0.00 0.00 56 1007.5
20211024224537 83 163 14.0 21.0 0.00 0.00 0.00 56 1007.5
20211024224037 84 174 14.0 19.0 0.00 0.00 0.00 56 1007.4
20211024223537 84 159 16.0 19.0 0.00 0.00 0.00 56 1007.5
20211024223038 84 161 16.0 22.0 0.00 0.00 0.00 55 1007.3
20211024222537 84 159 15.0 22.0 0.00 0.00 0.00 56 1007.4
20211024222037 84 167 14.0 23.0 0.00 0.00 0.00 56 1007.4
20211024221537 84 158 22.0 23.0 0.00 0.00 0.00 55 1007.4
20211024221037 84 147 19.0 20.0 0.00 0.00 0.00 55 1007.5
20211024220537 84 157 15.0 18.0 0.00 0.00 0.00 54 1007.5
20211024220037 87 183 13.0 18.0 0.00 0.00 0.00 47 1007.6
20211024215538 87 222 12.0 17.0 0.00 0.00 0.00 45 1007.6
20211024215037 86 200 12.0 21.0 0.00 0.00 0.00 45 1007.6
20211024214537 86 204 16.0 21.0 0.00 0.00 0.00 45 1007.6
20211024214038 86 227 18.0 20.0 0.00 0.00 0.00 46 1007.5
20211024213537 86 181 16.0 18.0 0.00 0.00 0.00 49 1007.5
20211024213037 86 172 14.0 20.0 0.00 0.00 0.00 50 1007.5
20211024212537 85 185 18.0 20.0 0.00 0.00 0.00 51 1007.3
20211024212007 85 188 13.0 19.0 0.00 0.00 0.00 50 1007.3
20211024211507 85 186 11.0 18.0 0.00 0.00 0.00 51 1007.5
20211024211008 85 208 18.0 18.0 0.00 0.00 0.00 51 1007.5
20211024210507 85 197 14.0 16.0 0.00 0.00 0.00 51 1007.5
20211024210008 85 185 13.0 16.0 0.00 0.00 0.00 50 1007.5
20211024205507 86 206 14.0 16.0 0.00 0.00 0.00 50 1007.5
20211024205008 86 173 13.0 20.0 0.00 0.00 0.00 50 1007.4
20211024204507 85 220 14.0 20.0 0.00 0.00 0.00 49 1007.3
20211024204007 85 226 19.0 20.0 0.00 0.00 0.00 50 1007.2
20211024203507 85 189 12.0 20.0 0.00 0.00 0.00 51 1007.3
20211024203007 85 220 13.0 21.0 0.00 0.00 0.00 51 1007.3
20211024202537 84 191 10.0 21.0 0.00 0.00 0.00 52 1007.4
20211024202007 84 205 18.0 20.0 0.00 0.00 0.00 51 1007.3
20211024201537 84 211 13.0 23.0 0.00 0.00 0.00 52 1007.3
20211024201037 84 223 19.0 24.0 0.00 0.00 0.00 52 1007.3
20211024200537 84 210 23.0 24.0 0.00 0.00 0.00 51 1007.2
20211024200037 84 207 20.0 24.0 0.00 0.00 0.00 53 1007.3
20211024195538 83 212 11.0 24.0 0.00 0.00 0.00 53 1007.3
20211024195038 84 217 19.0 23.0 0.00 0.00 0.00 53 1007.3
20211024194508 83 216 18.0 22.0 0.00 0.00 0.00 54 1007.1
20211024194007 83 186 17.0 24.0 0.00 0.00 0.00 54 1007.2
20211024193507 83 203 19.0 24.0 0.00 0.00 0.00 54 1007.3
20211024193007 83 219 19.0 23.0 0.00 0.00 0.00 54 1007.3
20211024192507 83 185 11.0 22.0 0.00 0.00 0.00 55 1007.4
20211024192007 82 213 22.0 26.0 0.00 0.00 0.00 56 1007.5
20211024191508 82 200 19.0 26.0 0.00 0.00 0.00 56 1007.5
20211024191037 82 201 22.0 23.0 0.00 0.00 0.00 55 1007.6
20211024190538 83 200 21.0 26.0 0.00 0.00 0.00 54 1007.5
20211024190037 82 203 19.0 26.0 0.00 0.00 0.00 56 1007.8
20211024185538 82 204 12.0 24.0 0.00 0.00 0.00 57 1007.9
20211024185038 81 202 18.0 25.0 0.00 0.00 0.00 57 1008.1
20211024184538 82 195 17.0 28.0 0.00 0.00 0.00 58 1008.1
20211024184038 81 224 22.0 28.0 0.00 0.00 0.00 58 1008.2
20211024183537 81 214 18.0 28.0 0.00 0.00 0.00 59 1008.3
20211024183037 81 211 15.0 26.0 0.00 0.00 0.00 60 1008.4
20211024182537 81 199 23.0 25.0 0.00 0.00 0.00 59 1008.3
20211024182008 80 215 20.0 29.0 0.00 0.00 0.00 60 1008.5
20211024181507 80 213 21.0 29.0 0.00 0.00 0.00 60 1008.6
20211024181038 80 221 20.0 30.0 0.00 0.00 0.00 59 1008.8
20211024180537 80 216 18.0 30.0 0.00 0.00 0.00 60 1008.8
20211024180007 81 214 28.0 30.0 0.00 0.00 0.00 57 1008.5
20211024175508 81 210 18.0 28.0 0.00 0.00 0.00 59 1008.6
20211024175008 80 208 23.0 30.0 0.00 0.00 0.00 59 1008.5
20211024174507 79 200 18.0 31.0 0.00 0.00 0.00 60 1008.5
20211024174007 80 200 20.0 31.0 0.00 0.00 0.00 59 1008.6
20211024173507 80 198 26.0 31.0 0.00 0.00 0.00 59 1008.7
20211024173008 80 206 19.0 31.0 0.00 0.00 0.00 60 1008.8
20211024172509 80 196 18.0 30.0 0.00 0.00 0.00 61 1008.9
20211024172007 79 203 24.0 30.0 0.00 0.00 0.00 62 1008.8
20211024171508 79 207 26.0 30.0 0.00 0.00 0.00 61 1008.8
20211024171007 79 204 24.0 30.0 0.00 0.00 0.00 62 1008.9
20211024170507 79 204 29.0 29.0 0.00 0.00 0.00 61 1009.0
20211024170038 79 196 19.0 29.0 0.00 0.00 0.00 62 1009.1
20211024165507 79 212 24.0 30.0 0.00 0.00 0.00 62 1009.1
20211024165008 78 209 24.0 35.0 0.00 0.00 0.00 63 1009.0
20211024164508 78 194 23.0 35.0 0.00 0.00 0.00 63 1009.0
20211024164007 78 210 33.0 33.0 0.00 0.00 0.00 63 1008.9
20211024163538 78 204 26.0 31.0 0.00 0.00 0.00 62 1009.0
20211024163037 79 202 26.0 32.0 0.00 0.00 0.00 62 1009.1
20211024162537 78 211 22.0 34.0 0.00 0.00 0.00 63 1009.1
20211024162038 78 200 22.0 34.0 0.00 0.00 0.00 62 1009.2
20211024161537 78 194 21.0 32.0 0.00 0.00 0.00 61 1009.1
20211024161037 78 211 23.0 32.0 0.00 0.00 0.00 62 1009.3
20211024160537 78 206 20.0 32.0 0.00 0.00 0.00 63 1009.4
20211024160038 78 212 32.0 32.0 0.00 0.00 0.00 62 1009.3
20211024155537 78 201 24.0 28.0 0.00 0.00 0.00 62 1009.4
20211024155008 77 201 27.0 30.0 0.00 0.00 0.00 62 1009.3
20211024154508 77 199 30.0 30.0 0.00 0.00 0.00 63 1009.5
20211024154007 77 196 19.0 26.0 0.00 0.00 0.00 64 1009.6
20211024153507 77 195 20.0 26.0 0.00 0.00 0.00 64 1009.8
20211024153008 77 180 14.0 29.0 0.00 0.00 0.00 65 1009.9
20211024152508 76 176 20.0 29.0 0.00 0.00 0.00 66 1009.8
20211024152007 76 189 28.0 28.0 0.00 0.00 0.00 66 1009.7
20211024151507 76 191 18.0 26.0 0.00 0.00 0.00 66 1009.9
20211024151008 76 191 13.0 26.0 0.00 0.00 0.00 67 1009.9
20211024150508 75 218 21.0 24.0 0.00 0.00 0.00 68 1009.9
20211024150007 75 202 21.0 24.0 0.00 0.00 0.00 68 1009.7
20211024145507 74 184 20.0 24.0 0.00 0.00 0.00 69 1009.6
20211024145037 74 198 20.0 24.0 0.00 0.00 0.00 70 1009.7
20211024144538 74 188 18.0 22.0 0.00 0.00 0.00 71 1009.8
20211024144037 73 191 16.0 22.0 0.00 0.00 0.00 71 1009.8
20211024143537 73 202 16.0 22.0 0.00 0.00 0.00 73 1010.1
20211024143038 73 206 15.0 28.0 0.00 0.00 0.00 73 1010.1
20211024142508 72 204 15.0 28.0 0.00 0.00 0.00 73 1010.0
20211024142007 72 203 21.0 25.0 0.00 0.00 0.00 74 1009.9
20211024141508 72 184 22.0 26.0 0.00 0.00 0.00 75 1009.7
20211024141008 71 196 22.0 26.0 0.00 0.00 0.00 75 1009.4
20211024140508 71 200 13.0 22.0 0.00 0.00 0.00 76 1009.3
20211024140008 71 192 15.0 22.0 0.00 0.00 0.00 77 1009.2
20211024135508 70 193 15.0 22.0 0.00 0.00 0.00 77 1009.2
20211024135008 70 183 17.0 22.0 0.00 0.00 0.00 77 1009.3
20211024134508 70 191 19.0 23.0 0.00 0.00 0.00 77 1009.3
20211024134008 70 176 15.0 23.0 0.00 0.00 0.00 78 1009.5
20211024133507 69 184 16.0 20.0 0.00 0.00 0.00 79 1009.5
20211024133008 69 187 14.0 20.0 0.00 0.00 0.00 79 1009.6
20211024132508 69 192 15.0 20.0 0.00 0.00 0.00 79 1009.6
20211024132008 69 186 11.0 21.0 0.00 0.00 0.00 79 1009.5
20211024131507 69 184 16.0 21.0 0.00 0.00 0.00 79 1009.6
20211024131007 69 196 16.0 18.0 0.00 0.00 0.00 79 1009.6
20211024130508 69 201 17.0 19.0 0.00 0.00 0.00 79 1009.7
20211024130008 69 194 14.0 20.0 0.00 0.00 0.00 79 1009.7
20211024125508 69 196 15.0 20.0 0.00 0.00 0.00 79 1009.8
20211024125008 69 196 18.0 22.0 0.00 0.00 0.00 79 1009.9
20211024124507 69 197 17.0 27.0 0.00 0.00 0.00 79 1010.0
20211024124008 69 209 16.0 27.0 0.00 0.00 0.00 79 1010.0
20211024123508 69 212 20.0 24.0 0.00 0.00 0.00 78 1009.9
20211024123008 69 211 22.0 26.0 0.00 0.00 0.00 79 1009.7
20211024122508 69 205 19.0 26.0 0.00 0.00 0.00 79 1009.8
20211024122008 68 212 16.0 22.0 0.00 0.00 0.00 80 1009.8
20211024121508 68 205 21.0 23.0 0.00 0.00 0.00 80 1009.6
20211024121008 68 189 18.0 23.0 0.00 0.00 0.00 80 1009.6
20211024120509 68 200 18.0 21.0 0.00 0.00 0.00 80 1009.5
20211024120007 68 194 15.0 21.0 0.00 0.00 0.00 80 1009.6
20211024115508 68 214 18.0 21.0 0.00 0.00 0.00 80 1009.7
20211024115007 68 201 19.0 22.0 0.00 0.00 0.00 81 1009.6
20211024114507 68 197 12.0 23.0 0.00 0.00 0.00 81 1009.6
20211024114008 68 199 17.0 23.0 0.00 0.00 0.00 81 1009.4
20211024113508 68 204 17.0 23.0 0.00 0.00 0.00 81 1009.4
20211024113009 68 198 22.0 24.0 0.00 0.00 0.00 81 1009.4
20211024112508 68 206 15.0 24.0 0.00 0.00 0.00 81 1009.6
20211024112008 68 201 20.0 23.0 0.00 0.00 0.00 81 1009.4
20211024111508 68 199 15.0 23.0 0.00 0.00 0.00 81 1009.4
20211024111008 68 211 15.0 20.0 0.00 0.00 0.00 81 1009.4
20211024110508 68 193 15.0 19.0 0.00 0.00 0.00 82 1009.3
20211024110009 67 198 14.0 18.0 0.00 0.00 0.00 82 1009.2
20211024105507 67 197 14.0 15.0 0.00 0.00 0.00 82 1009.3
20211024105008 67 198 10.0 12.0 0.00 0.00 0.00 83 1009.4
20211024104507 67 187 9.0 12.0 0.00 0.00 0.00 82 1009.2
20211024104008 67 179 10.0 12.0 0.00 0.00 0.00 82 1009.1
20211024103508 67 193 11.0 13.0 0.00 0.00 0.00 82 1009.1
20211024103008 67 182 9.0 15.0 0.00 0.00 0.00 82 1009.0
20211024102508 67 176 11.0 15.0 0.00 0.00 0.00 82 1009.1
20211024102008 67 198 12.0 15.0 0.00 0.00 0.00 81 1009.1
20211024101508 67 176 14.0 15.0 0.00 0.00 0.00 81 1009.0
20211024101008 68 189 9.0 13.0 0.00 0.00 0.00 81 1009.1
20211024100508 68 202 12.0 13.0 0.00 0.00 0.00 81 1009.1
20211024100007 68 186 9.0 15.0 0.00 0.00 0.00 81 1009.0
20211024095508 68 186 15.0 15.0 0.00 0.00 0.00 81 1009.0
20211024095008 68 179 10.0 16.0 0.00 0.00 0.00 80 1009.0
20211024094508 68 193 13.0 16.0 0.00 0.00 0.00 80 1009.0
20211024094008 68 183 9.0 14.0 0.00 0.00 0.00 80 1009.1
20211024093507 68 179 10.0 14.0 0.00 0.00 0.00 80 1009.1
20211024093008 68 187 9.0 14.0 0.00 0.00 0.00 79 1009.2
20211024092508 68 189 8.0 16.0 0.00 0.00 0.00 79 1009.1
20211024092008 68 180 10.0 18.0 0.00 0.00 0.00 79 1009.1
20211024091508 68 194 9.0 18.0 0.00 0.00 0.00 78 1009.2
20211024091008 69 196 10.0 17.0 0.00 0.00 0.00 78 1009.2
20211024090508 69 203 12.0 16.0 0.00 0.00 0.00 78 1009.1
20211024090008 69 184 14.0 18.0 0.00 0.00 0.00 77 1009.1
20211024085508 69 175 10.0 18.0 0.00 0.00 0.00 77 1009.1
20211024085007 69 185 15.0 17.0 0.00 0.00 0.00 77 1009.1
20211024084508 69 192 12.0 18.0 0.00 0.00 0.00 76 1009.3
20211024084007 69 201 15.0 18.0 0.00 0.00 0.00 76 1009.3
20211024083507 69 193 17.0 18.0 0.00 0.00 0.00 76 1009.3
20211024083008 69 196 15.0 22.0 0.00 0.00 0.00 75 1009.3
20211024082508 70 198 13.0 25.0 0.00 0.00 0.00 75 1009.3
20211024082008 70 179 18.0 25.0 0.00 0.00 0.00 74 1009.3
20211024081508 70 198 18.0 22.0 0.00 0.00 0.00 74 1009.5
20211024081008 70 192 17.0 22.0 0.00 0.00 0.00 74 1009.5
20211024080508 70 195 15.0 20.0 0.00 0.00 0.00 73 1009.5
20211024080008 70 180 14.0 20.0 0.00 0.00 0.00 73 1009.4
20211024075508 70 177 15.0 20.0 0.00 0.00 0.00 73 1009.6
20211024075008 70 186 11.0 21.0 0.00 0.00 0.00 72 1009.6
20211024074508 71 197 15.0 21.0 0.00 0.00 0.00 72 1009.6
20211024074008 71 182 17.0 21.0 0.00 0.00 0.00 72 1009.6
20211024073508 71 202 18.0 21.0 0.00 0.00 0.00 71 1009.5
20211024073008 71 198 20.0 21.0 0.00 0.00 0.00 71 1009.5
20211024072508 71 187 17.0 22.0 0.00 0.00 0.00 71 1009.4
20211024072009 71 185 22.0 22.0 0.00 0.00 0.00 70 1009.3
20211024071508 71 183 18.0 19.0 0.00 0.00 0.00 70 1009.4
20211024071008 71 194 15.0 18.0 0.00 0.00 0.00 70 1009.4
20211024070508 71 185 12.0 19.0 0.00 0.00 0.00 69 1009.4
20211024070007 72 188 11.0 24.0 0.00 0.00 0.00 68 1009.5
20211024065508 72 191 13.0 24.0 0.00 0.00 0.00 67 1009.5
20211024065008 72 194 15.0 26.0 0.00 0.00 0.00 67 1009.6
20211024064508 72 172 20.0 26.0 0.00 0.00 0.00 67 1009.5
20211024064008 72 192 20.0 22.0 0.00 0.00 0.00 67 1009.4
20211024063508 73 198 18.0 24.0 0.00 0.00 0.00 67 1009.3
20211024063008 73 179 15.0 24.0 0.00 0.00 0.00 67 1009.3
20211024062508 73 175 13.0 23.0 0.00 0.00 0.00 67 1009.3
20211024062008 73 189 15.0 23.0 0.00 0.00 0.00 67 1009.1
20211024061508 73 169 18.0 23.0 0.00 0.00 0.00 67 1009.1
20211024061008 73 168 20.0 23.0 0.00 0.00 0.00 67 1009.1
20211024060508 73 171 16.0 24.0 0.00 0.00 0.00 66 1009.2
20211024060008 73 173 16.0 25.0 0.00 0.00 0.00 66 1009.1
20211024055508 74 177 23.0 26.0 0.00 0.00 0.00 65 1009.0
20211024055008 74 172 22.0 26.0 0.00 0.00 0.00 66 1009.1
20211024054508 74 178 19.0 23.0 0.00 0.00 0.00 67 1009.1
20211024054009 74 173 20.0 24.0 0.00 0.00 0.00 69 1009.1
20211024053508 74 190 18.0 24.0 0.00 0.00 0.00 71 1009.1
20211024053008 74 167 20.0 24.0 0.00 0.00 0.00 71 1009.1
20211024052508 74 175 19.0 24.0 0.00 0.00 0.00 72 1009.2
20211024052008 74 171 13.0 24.0 0.00 0.00 0.00 72 1009.2
20211024051508 74 170 19.0 24.0 0.00 0.00 0.00 72 1009.1
20211024051008 75 172 20.0 24.0 0.00 0.00 0.00 71 1008.9
20211024050508 75 172 17.0 24.0 0.00 0.00 0.00 71 1009.0
20211024050008 75 167 17.0 26.0 0.00 0.00 0.00 71 1009.1
20211024045508 75 168 19.0 26.0 0.00 0.00 0.00 70 1009.1
20211024045038 75 181 20.0 25.0 0.00 0.00 0.00 70 1008.9
20211024044508 75 178 14.0 25.0 0.00 0.00 0.00 71 1009.1
20211024044008 75 184 18.0 23.0 0.00 0.00 0.00 71 1009.0
20211024043508 75 183 14.0 25.0 0.00 0.00 0.00 71 1009.0
20211024043008 75 171 22.0 25.0 0.00 0.00 0.00 71 1008.9
20211024042508 76 167 22.0 25.0 0.00 0.00 0.00 70 1009.0
20211024042008 76 188 17.0 25.0 0.00 0.00 0.00 70 1009.0
20211024041508 76 170 15.0 23.0 0.00 0.00 0.00 70 1009.0
20211024041008 76 171 16.0 22.0 0.00 0.00 0.00 70 1009.0
20211024040508 76 175 20.0 22.0 0.00 0.00 0.00 70 1009.0
20211024040008 76 174 17.0 23.0 0.00 0.00 0.00 69 1009.1
20211024035508 76 174 18.0 23.0 0.00 0.00 0.00 69 1009.0
20211024035008 76 171 16.0 23.0 0.00 0.00 0.00 69 1009.0
20211024034508 76 174 13.0 23.0 0.00 0.00 0.00 69 1008.9
20211024034008 76 173 15.0 21.0 0.00 0.00 0.00 69 1008.8
20211024033508 76 172 14.0 21.0 0.00 0.00 0.00 69 1008.7
20211024033009 76 172 15.0 20.0 0.00 0.00 0.00 69 1008.7
20211024032508 76 173 16.0 19.0 0.00 0.00 0.00 69 1008.7
20211024032008 76 166 14.0 17.0 0.00 0.00 0.00 69 1008.7
20211024031508 76 164 11.0 15.0 0.00 0.00 0.00 68 1008.6
20211024031008 76 172 10.0 18.0 0.00 0.00 0.00 68 1008.6
20211024030508 76 172 13.0 18.0 0.00 0.00 0.00 67 1008.6
20211024030009 76 160 17.0 18.0 0.00 0.00 0.00 67 1008.4
20211024025508 76 159 15.0 18.0 0.00 0.00 0.00 67 1008.3
20211024025008 76 164 14.0 16.0 0.00 0.00 0.00 66 1008.3
20211024024508 76 153 11.0 14.0 0.00 0.00 0.00 65 1008.4
20211024024008 76 173 11.0 14.0 0.00 0.00 0.00 65 1008.4
20211024023511 76 169 11.0 13.0 0.00 0.00 0.00 64 1008.4
20211024023008 76 163 9.0 13.0 0.00 0.00 0.00 63 1008.4
20211024022508 76 165 11.0 14.0 0.00 0.00 0.00 63 1008.4
20211024022008 77 165 10.0 15.0 0.00 0.00 0.00 62 1008.4
20211024021508 77 173 14.0 15.0 0.00 0.00 0.00 61 1008.5
20211024021008 77 179 13.0 14.0 0.00 0.00 0.00 61 1008.4
20211024020508 77 167 13.0 15.0 0.00 0.00 0.00 61 1008.4
20211024020008 77 167 14.0 15.0 0.00 0.00 0.00 60 1008.5
20211024015508 77 167 11.0 13.0 0.00 0.00 0.00 60 1008.4
20211024015008 77 165 11.0 14.0 0.00 0.00 0.00 60 1008.5
20211024014508 77 169 13.0 16.0 0.00 0.00 0.00 59 1008.5
20211024014009 78 162 10.0 16.0 0.00 0.00 0.00 59 1008.4
20211024013508 78 168 12.0 15.0 0.00 0.00 0.00 59 1008.4
20211024013008 78 169 13.0 17.0 0.00 0.00 0.00 58 1008.4
20211024012508 78 167 13.0 17.0 0.00 0.00 0.00 58 1008.3
20211024012008 78 177 12.0 16.0 0.00 0.00 0.00 58 1008.4
20211024011508 78 178 13.0 16.0 0.00 0.00 0.00 58 1008.4
20211024011009 78 168 14.0 15.0 0.00 0.00 0.00 57 1008.3
20211024010509 78 170 14.0 16.0 0.00 0.00 0.00 57 1008.3
20211024010008 78 167 12.0 16.0 0.00 0.00 0.00 57 1008.3
20211024005508 79 169 15.0 16.0 0.00 0.00 0.00 56 1008.3
20211024005008 79 164 12.0 16.0 0.00 0.00 0.00 56 1008.3
20211024004508 79 159 11.0 16.0 0.00 0.00 0.00 56 1008.3
20211024004008 79 174 13.0 19.0 0.00 0.00 0.00 55 1008.2
20211024003508 80 166 13.0 19.0 0.00 0.00 0.00 55 1008.2
20211024003008 80 186 11.0 18.0 0.00 0.00 0.00 55 1008.2
20211024002508 80 173 15.0 18.0 0.00 0.00 0.00 55 1008.2
20211024002008 80 165 13.0 18.0 0.00 0.00 0.00 55 1008.2
20211024001508 80 175 13.0 18.0 0.00 0.00 0.00 55 1008.1
20211024001008 80 176 11.0 16.0 0.00 0.00 0.00 55 1008.1
20211024000508 80 173 14.0 16.0 0.00 0.00 0.00 55 1008.1
20211024000008 80 189 11.0 16.0 0.00 0.00 0.00 55 1008.2
20211023235508 80 180 16.0 17.0 0.00 0.00 0.00 55 1008.1
20211023235008 80 173 13.0 17.0 0.00 0.00 0.00 55 1008.1
20211023234508 81 162 12.0 17.0 0.00 0.00 0.00 54 1008.1
20211023234008 81 173 13.0 20.0 0.00 0.00 0.00 54 1008.1
20211023233508 81 170 13.0 20.0 0.00 0.00 0.00 53 1008.1
20211023233008 82 176 15.0 20.0 0.00 0.00 0.00 52 1008.1
20211023232508 82 175 19.0 21.0 0.00 0.00 0.00 52 1008.0
20211023232008 82 168 17.0 21.0 0.00 0.00 0.00 52 1008.0
20211023231508 82 176 16.0 21.0 0.00 0.00 0.00 53 1008.1
20211023231008 82 171 15.0 20.0 0.00 0.00 0.00 52 1008.1
20211023230508 82 190 16.0 20.0 0.00 0.00 0.00 52 1008.1
20211023230009 82 191 11.0 22.0 0.00 0.00 0.00 52 1008.1
20211023225508 83 175 16.0 24.0 0.00 0.00 0.00 51 1008.0